Location: Newark
(7.1028°S, 35.3258°W)
Time: 00:10:46
(UTC+00:00)

deb Explorer IX - Pass Details

Date: 25 February 2020
Orbit: 548 x 1100 km, 38.8° (Epoch: 08 April)

Event Time Altitude Azimuth Distance (km) Brightness Sun altitude
Rises 22:04:39 0° 268° (W) 3,226 ? -20.9°
Reaches altitude 10° 22:08:01 10° 246° (WSW) 2,421 ? -21.7°
Maximum altitude 22:11:25 16° 210° (SSW) 2,154 ? -22.5°
Drops below altitude 10° 22:15:05 10° 174° (S) 2,657 ? -23.4°
Sets 22:19:05 0° 153° (SSE) 3,718 ? -24.4°
